| time (UTC) | temp C | wind direction | speed KPH | gust KPH | rain 1hr cm | rain 24hr cm | rain mn cm | humidity % | barometer mb |
| 20260507182556 | 27 | 104 | 9.7 | 22.5 | 0.00 | 0.15 | 0.00 | 59 | 1012.5 |
| 20260507182051 | 28 | 150 | 3.2 | 16.1 | 0.00 | 0.15 | 0.00 | 57 | 1012.5 |
| 20260507181551 | 28 | 142 | 8.0 | 16.1 | 0.00 | 0.15 | 0.00 | 56 | 1012.6 |
| 20260507181050 | 28 | 179 | 1.6 | 11.3 | 0.00 | 0.15 | 0.00 | 56 | 1012.5 |
| 20260507180549 | 28 | 87 | 6.4 | 12.9 | 0.00 | 0.15 | 0.00 | 58 | 1012.5 |
| 20260507180049 | 27 | 194 | 4.8 | 19.3 | 0.00 | 0.15 | 0.00 | 58 | 1012.5 |
| 20260507175548 | 27 | 55 | 9.7 | 19.3 | 0.00 | 0.15 | 0.00 | 58 | 1012.7 |
| 20260507175046 | 27 | 139 | 11.3 | 19.3 | 0.00 | 0.15 | 0.00 | 57 | 1012.8 |
| 20260507174554 | 27 | 141 | 4.8 | 16.1 | 0.00 | 0.15 | 0.00 | 58 | 1012.8 |
| 20260507174044 | 27 | 184 | 6.4 | 16.1 | 0.00 | 0.15 | 0.00 | 58 | 1013.0 |
| 20260507173543 | 27 | 117 | 6.4 | 16.1 | 0.00 | 0.15 | 0.00 | 58 | 1013.1 |
| 20260507173046 | 27 | 85 | 4.8 | 17.7 | 0.00 | 0.15 | 0.00 | 59 | 1013.4 |
| 20260507172544 | 27 | 111 | 9.7 | 17.7 | 0.00 | 0.15 | 0.00 | 59 | 1013.6 |
| 20260507172045 | 27 | 121 | 9.7 | 14.5 | 0.00 | 0.15 | 0.00 | 60 | 1013.6 |
| 20260507171552 | 27 | 128 | 4.8 | 17.7 | 0.00 | 0.15 | 0.00 | 60 | 1013.7 |
| 20260507171039 | 26 | 59 | 4.8 | 17.7 | 0.00 | 0.15 | 0.00 | 62 | 1013.9 |
| 20260507170539 | 26 | 107 | 9.7 | 17.7 | 0.00 | 0.15 | 0.00 | 63 | 1014.0 |
| 20260507170040 | 26 | 64 | 8.0 | 14.5 | 0.00 | 0.15 | 0.00 | 63 | 1014.0 |
| 20260507165538 | 26 | 115 | 3.2 | 14.5 | 0.00 | 0.15 | 0.00 | 63 | 1014.0 |
| 20260507165037 | 26 | 128 | 6.4 | 16.1 | 0.00 | 0.15 | 0.00 | 63 | 1014.1 |
| 20260507164539 | 26 | 119 | 9.7 | 16.1 | 0.00 | 0.15 | 0.00 | 61 | 1014.0 |
| 20260507164037 | 26 | 91 | 3.2 | 12.9 | 0.00 | 0.15 | 0.00 | 62 | 1014.1 |
| 20260507163536 | 26 | 98 | 1.6 | 17.7 | 0.00 | 0.15 | 0.00 | 63 | 1014.1 |
| 20260507163036 | 26 | 320 | 6.4 | 17.7 | 0.00 | 0.15 | 0.00 | 60 | 1014.0 |
| 20260507162636 | 26 | 98 | 4.8 | 19.3 | 0.00 | 0.15 | 0.00 | 60 | 1014.0 |
| 20260507162036 | 26 | 111 | 12.9 | 19.3 | 0.00 | 0.15 | 0.00 | 59 | 1013.9 |
| 20260507161535 | 26 | 86 | 4.8 | 17.7 | 0.00 | 0.15 | 0.00 | 61 | 1013.9 |
| 20260507161035 | 26 | 97 | 8.0 | 20.9 | 0.00 | 0.15 | 0.00 | 60 | 1013.8 |
| 20260507160535 | 26 | 98 | 9.7 | 20.9 | 0.00 | 0.15 | 0.00 | 60 | 1014.0 |
| 20260507160033 | 26 | 135 | 9.7 | 29.0 | 0.00 | 0.15 | 0.00 | 61 | 1014.1 |
| 20260507155533 | 26 | 27 | 8.0 | 29.0 | 0.00 | 0.15 | 0.00 | 64 | 1014.1 |
| 20260507155030 | 26 | 67 | 12.9 | 20.9 | 0.00 | 0.15 | 0.00 | 63 | 1014.1 |
| 20260507154533 | 26 | 115 | 9.7 | 20.9 | 0.00 | 0.15 | 0.00 | 63 | 1014.1 |
| 20260507154028 | 25 | 79 | 11.3 | 22.5 | 0.00 | 0.15 | 0.00 | 64 | 1014.0 |
| 20260507153527 | 25 | 101 | 14.5 | 22.5 | 0.00 | 0.15 | 0.00 | 65 | 1014.0 |
| 20260507153025 | 25 | 82 | 12.9 | 29.0 | 0.00 | 0.15 | 0.00 | 66 | 1013.8 |
| 20260507152526 | 25 | 94 | 12.9 | 29.0 | 0.00 | 0.15 | 0.00 | 65 | 1013.8 |
| 20260507152023 | 25 | 123 | 16.1 | 27.4 | 0.00 | 0.15 | 0.00 | 65 | 1013.9 |
| 20260507151521 | 25 | 119 | 6.4 | 20.9 | 0.00 | 0.15 | 0.00 | 68 | 1013.9 |
| 20260507151020 | 25 | 117 | 11.3 | 20.9 | 0.00 | 0.15 | 0.00 | 68 | 1013.9 |
| 20260507150523 | 24 | 82 | 9.7 | 20.9 | 0.00 | 0.15 | 0.00 | 70 | 1013.8 |
| 20260507150018 | 24 | 84 | 12.9 | 25.7 | 0.00 | 0.15 | 0.00 | 69 | 1013.9 |
| 20260507145519 | 23 | 94 | 11.3 | 24.1 | 0.00 | 0.15 | 0.00 | 70 | 1014.0 |
| 20260507145014 | 23 | 51 | 16.1 | 24.1 | 0.00 | 0.15 | 0.00 | 71 | 1013.9 |
| 20260507144515 | 23 | 71 | 17.7 | 22.5 | 0.00 | 0.15 | 0.00 | 71 | 1013.9 |
| 20260507144011 | 23 | 97 | 9.7 | 25.7 | 0.00 | 0.15 | 0.00 | 73 | 1014.0 |
| 20260507143510 | 23 | 91 | 14.5 | 25.7 | 0.00 | 0.15 | 0.00 | 73 | 1014.1 |
| 20260507143010 | 23 | 100 | 14.5 | 20.9 | 0.00 | 0.15 | 0.00 | 73 | 1014.1 |
| 20260507142508 | 23 | 91 | 12.9 | 20.9 | 0.00 | 0.15 | 0.00 | 74 | 1014.2 |
| 20260507142015 | 23 | 55 | 11.3 | 24.1 | 0.00 | 0.15 | 0.00 | 74 | 1014.3 |
| 20260507141506 | 23 | 124 | 12.9 | 20.9 | 0.00 | 0.15 | 0.00 | 73 | 1014.3 |
| 20260507141006 | 23 | 136 | 6.4 | 24.1 | 0.00 | 0.15 | 0.00 | 74 | 1014.3 |
| 20260507140503 | 23 | 218 | 11.3 | 24.1 | 0.00 | 0.15 | 0.00 | 74 | 1014.1 |
| 20260507140006 | 23 | 102 | 11.3 | 22.5 | 0.00 | 0.15 | 0.00 | 75 | 1014.0 |
| 20260507135502 | 23 | 154 | 9.7 | 24.1 | 0.00 | 0.15 | 0.00 | 74 | 1014.0 |
| 20260507135059 | 23 | 91 | 12.9 | 24.1 | 0.00 | 0.15 | 0.00 | 72 | 1013.9 |
| 20260507134559 | 23 | 107 | 12.9 | 22.5 | 0.00 | 0.15 | 0.00 | 73 | 1013.7 |
| 20260507134057 | 23 | 113 | 11.3 | 24.1 | 0.00 | 0.15 | 0.00 | 72 | 1013.5 |
| 20260507133555 | 23 | 93 | 14.5 | 24.1 | 0.00 | 0.15 | 0.00 | 73 | 1013.4 |
| 20260507133054 | 23 | 140 | 11.3 | 22.5 | 0.00 | 0.15 | 0.00 | 73 | 1013.4 |
| 20260507132552 | 23 | 160 | 8.0 | 22.5 | 0.00 | 0.15 | 0.00 | 73 | 1013.2 |
| 20260507132053 | 23 | 123 | 9.7 | 22.5 | 0.00 | 0.15 | 0.00 | 75 | 1013.2 |
| 20260507131549 | 23 | 181 | 6.4 | 24.1 | 0.00 | 0.15 | 0.00 | 75 | 1012.9 |
| 20260507131048 | 22 | 94 | 14.5 | 27.4 | 0.00 | 0.15 | 0.00 | 75 | 1012.9 |
| 20260507130547 | 22 | 109 | 14.5 | 27.4 | 0.00 | 0.15 | 0.00 | 76 | 1012.8 |
| 20260507130045 | 22 | 121 | 11.3 | 24.1 | 0.00 | 0.15 | 0.00 | 77 | 1012.9 |
| 20260507125544 | 22 | 94 | 11.3 | 25.7 | 0.00 | 0.15 | 0.00 | 78 | 1012.7 |
| 20260507125042 | 22 | 117 | 11.3 | 25.7 | 0.00 | 0.15 | 0.00 | 77 | 1012.7 |
| 20260507124541 | 22 | 360 | 11.3 | 24.1 | 0.00 | 0.15 | 0.00 | 78 | 1012.8 |
| 20260507124040 | 21 | 96 | 12.9 | 19.3 | 0.00 | 0.15 | 0.00 | 78 | 1012.9 |
| 20260507123539 | 21 | 100 | 12.9 | 19.3 | 0.00 | 0.15 | 0.00 | 78 | 1012.7 |
| 20260507123038 | 21 | 360 | 9.7 | 19.3 | 0.00 | 0.15 | 0.00 | 80 | 1012.8 |
| 20260507122536 | 21 | 119 | 9.7 | 19.3 | 0.00 | 0.15 | 0.00 | 81 | 1012.8 |
| 20260507122036 | 20 | 119 | 11.3 | 16.1 | 0.00 | 0.15 | 0.00 | 82 | 1012.8 |
| 20260507121535 | 21 | 360 | 6.4 | 19.3 | 0.00 | 0.15 | 0.00 | 81 | 1012.8 |
| 20260507121035 | 21 | 86 | 14.5 | 20.9 | 0.00 | 0.15 | 0.00 | 81 | 1012.8 |
| 20260507120533 | 21 | 96 | 11.3 | 20.9 | 0.00 | 0.15 | 0.00 | 81 | 1012.8 |
| 20260507120032 | 21 | 100 | 9.7 | 19.3 | 0.00 | 0.15 | 0.00 | 81 | 1012.7 |
| 20260507115531 | 20 | 136 | 11.3 | 17.7 | 0.00 | 0.15 | 0.00 | 81 | 1012.8 |
| 20260507115029 | 20 | 92 | 8.0 | 14.5 | 0.00 | 0.15 | 0.00 | 81 | 1012.8 |
| 20260507114528 | 21 | 100 | 6.4 | 14.5 | 0.00 | 0.15 | 0.00 | 80 | 1012.8 |
| 20260507114028 | 21 | 100 | 8.0 | 16.1 | 0.00 | 0.15 | 0.00 | 80 | 1012.7 |
| 20260507113527 | 20 | 91 | 9.7 | 17.7 | 0.00 | 0.15 | 0.00 | 80 | 1012.7 |
| 20260507113027 | 20 | 360 | 9.7 | 17.7 | 0.00 | 0.15 | 0.00 | 81 | 1012.7 |
| 20260507112527 | 20 | 111 | 11.3 | 16.1 | 0.00 | 0.15 | 0.00 | 82 | 1012.8 |
| 20260507112028 | 19 | 92 | 6.4 | 12.9 | 0.00 | 0.15 | 0.00 | 84 | 1012.6 |
| 20260507111535 | 19 | 92 | 4.8 | 12.9 | 0.00 | 0.15 | 0.00 | 85 | 1012.6 |
| 20260507111024 | 19 | 99 | 4.8 | 14.5 | 0.00 | 0.15 | 0.00 | 85 | 1012.5 |
| 20260507110523 | 19 | 101 | 6.4 | 14.5 | 0.00 | 0.15 | 0.00 | 85 | 1012.5 |
| 20260507110023 | 19 | 90 | 4.8 | 9.7 | 0.00 | 0.15 | 0.00 | 85 | 1012.3 |
| 20260507105525 | 20 | 115 | 4.8 | 9.7 | 0.00 | 0.15 | 0.00 | 84 | 1012.5 |
| 20260507105021 | 20 | 116 | 4.8 | 9.7 | 0.00 | 0.15 | 0.00 | 84 | 1012.3 |
| 20260507104521 | 20 | 110 | 3.2 | 11.3 | 0.00 | 0.15 | 0.00 | 84 | 1012.3 |
| 20260507104023 | 20 | 115 | 6.4 | 11.3 | 0.00 | 0.15 | 0.00 | 84 | 1012.3 |
| 20260507103520 | 20 | 109 | 3.2 | 6.4 | 0.00 | 0.15 | 0.00 | 83 | 1012.2 |
| 20260507103020 | 20 | 117 | 3.2 | 6.4 | 0.00 | 0.15 | 0.00 | 83 | 1012.1 |
| 20260507102520 | 20 | 122 | 3.2 | 11.3 | 0.00 | 0.15 | 0.00 | 82 | 1012.0 |
| 20260507102020 | 20 | 94 | 4.8 | 12.9 | 0.00 | 0.15 | 0.00 | 82 | 1011.9 |
| 20260507101520 | 20 | 113 | 8.0 | 12.9 | 0.00 | 0.15 | 0.00 | 82 | 1011.9 |
| 20260507101020 | 20 | 111 | 4.8 | 12.9 | 0.00 | 0.15 | 0.00 | 82 | 1011.9 |
| 20260507100519 | 20 | 118 | 8.0 | 14.5 | 0.00 | 0.15 | 0.00 | 82 | 1011.9 |
| 20260507100020 | 20 | 95 | 6.4 | 14.5 | 0.00 | 0.15 | 0.00 | 83 | 1012.0 |
| 20260507095520 | 20 | 90 | 8.0 | 14.5 | 0.00 | 0.15 | 0.00 | 83 | 1012.0 |
| 20260507095019 | 20 | 71 | 8.0 | 19.3 | 0.00 | 0.15 | 0.00 | 83 | 1011.8 |
| 20260507094522 | 20 | 88 | 11.3 | 19.3 | 0.00 | 0.15 | 0.00 | 83 | 1011.8 |
| 20260507094018 | 20 | 109 | 11.3 | 19.3 | 0.00 | 0.15 | 0.00 | 83 | 1011.8 |
| 20260507093518 | 20 | 107 | 9.7 | 20.9 | 0.00 | 0.15 | 0.00 | 83 | 1011.7 |
| 20260507093118 | 20 | 111 | 12.9 | 20.9 | 0.00 | 0.15 | 0.00 | 83 | 1011.6 |
| 20260507092518 | 20 | 104 | 11.3 | 17.7 | 0.00 | 0.15 | 0.00 | 83 | 1011.6 |
| 20260507092017 | 20 | 82 | 11.3 | 19.3 | 0.00 | 0.15 | 0.00 | 84 | 1011.6 |
| 20260507091525 | 20 | 110 | 9.7 | 19.3 | 0.00 | 0.15 | 0.00 | 84 | 1011.6 |
| 20260507091023 | 20 | 115 | 9.7 | 17.7 | 0.00 | 0.15 | 0.00 | 83 | 1011.7 |
| 20260507090521 | 20 | 93 | 11.3 | 17.7 | 0.00 | 0.15 | 0.00 | 83 | 1011.7 |
| 20260507090019 | 20 | 90 | 11.3 | 20.9 | 0.00 | 0.15 | 0.00 | 82 | 1011.7 |
| 20260507085516 | 20 | 103 | 12.9 | 20.9 | 0.00 | 0.15 | 0.00 | 82 | 1011.6 |
| 20260507085015 | 20 | 89 | 12.9 | 20.9 | 0.00 | 0.15 | 0.00 | 82 | 1011.7 |
| 20260507084523 | 20 | 96 | 11.3 | 19.3 | 0.00 | 0.15 | 0.00 | 82 | 1011.8 |
| 20260507084014 | 20 | 82 | 8.0 | 17.7 | 0.00 | 0.15 | 0.00 | 82 | 1011.7 |
| 20260507083517 | 20 | 111 | 9.7 | 17.7 | 0.00 | 0.15 | 0.00 | 82 | 1011.7 |
| 20260507083013 | 19 | 101 | 6.4 | 14.5 | 0.00 | 0.15 | 0.00 | 83 | 1011.8 |
| 20260507082517 | 19 | 125 | 3.2 | 9.7 | 0.00 | 0.15 | 0.00 | 84 | 1011.9 |
| 20260507082011 | 19 | 100 | 3.2 | 8.0 | 0.00 | 0.15 | 0.00 | 84 | 1011.9 |
| 20260507081520 | 18 | 94 | 4.8 | 8.0 | 0.00 | 0.15 | 0.00 | 86 | 1012.0 |
| 20260507081011 | 18 | 97 | 4.8 | 8.0 | 0.00 | 0.15 | 0.00 | 87 | 1012.0 |
| 20260507080511 | 18 | 127 | 4.8 | 9.7 | 0.00 | 0.15 | 0.00 | 88 | 1012.1 |
| 20260507080009 | 18 | 103 | 1.6 | 9.7 | 0.00 | 0.15 | 0.00 | 88 | 1012.2 |
| 20260507075509 | 18 | 94 | 3.2 | 9.7 | 0.00 | 0.15 | 0.00 | 88 | 1012.3 |
| 20260507075011 | 18 | 76 | 4.8 | 9.7 | 0.00 | 0.15 | 0.00 | 88 | 1012.5 |
| 20260507074508 | 18 | 69 | 3.2 | 8.0 | 0.00 | 0.15 | 0.00 | 89 | 1012.4 |
| 20260507074009 | 18 | 49 | 1.6 | 6.4 | 0.00 | 0.15 | 0.00 | 89 | 1012.4 |
| 20260507073506 | 18 | 57 | 0.0 | 4.8 | 0.00 | 0.15 | 0.00 | 89 | 1012.3 |
| 20260507073008 | 18 | 66 | 1.6 | 4.8 | 0.00 | 0.15 | 0.00 | 88 | 1012.5 |
| 20260507072505 | 18 | 30 | 0.0 | 4.8 | 0.00 | 0.15 | 0.00 | 88 | 1012.5 |
| 20260507072004 | 18 | 38 | 1.6 | 4.8 | 0.00 | 0.15 | 0.00 | 87 | 1012.5 |
| 20260507071504 | 18 | 65 | 1.6 | 4.8 | 0.00 | 0.15 | 0.00 | 88 | 1012.6 |
| 20260507071005 | 19 | 5 | 1.6 | 4.8 | 0.00 | 0.15 | 0.00 | 87 | 1012.6 |
| 20260507070503 | 19 | 252 | 0.0 | 1.6 | 0.00 | 0.15 | 0.00 | 86 | 1012.8 |
| 20260507070003 | 19 | 252 | 0.0 | 1.6 | 0.00 | 0.15 | 0.00 | 85 | 1012.8 |
| 20260507065501 | 20 | 252 | 0.0 | 1.6 | 0.00 | 0.15 | 0.00 | 84 | 1013.0 |
| 20260507065100 | 20 | 252 | 0.0 | 4.8 | 0.00 | 0.15 | 0.00 | 84 | 1013.1 |
| 20260507064601 | 20 | 252 | 1.6 | 9.7 | 0.00 | 0.15 | 0.00 | 83 | 1013.2 |
| 20260507064059 | 20 | 92 | 4.8 | 9.7 | 0.00 | 0.15 | 0.00 | 83 | 1013.2 |
| 20260507064001 | 20 | 105 | 3.2 | 11.3 | 0.00 | 0.15 | 0.00 | 83 | 1013.2 |
| 20260507063558 | 20 | 60 | 1.6 | 11.3 | 0.00 | 0.15 | 0.00 | 83 | 1013.3 |
| 20260507063057 | 20 | 88 | 6.4 | 11.3 | 0.00 | 0.15 | 0.00 | 84 | 1013.2 |
| 20260507062555 | 19 | 79 | 1.6 | 12.9 | 0.00 | 0.15 | 0.00 | 85 | 1013.3 |
| 20260507062054 | 19 | 58 | 4.8 | 12.9 | 0.00 | 0.15 | 0.00 | 87 | 1013.3 |
| 20260507061553 | 18 | 80 | 3.2 | 8.0 | 0.00 | 0.15 | 0.00 | 88 | 1013.4 |
| 20260507061052 | 18 | 71 | 1.6 | 4.8 | 0.00 | 0.15 | 0.00 | 89 | 1013.5 |
| 20260507060554 | 18 | 71 | 0.0 | 4.8 | 0.00 | 0.15 | 0.00 | 89 | 1013.5 |
| 20260507055551 | 18 | 82 | 1.6 | 4.8 | 0.00 | 0.15 | 0.15 | 88 | 1013.8 |
| 20260507055051 | 18 | 27 | 0.0 | 3.2 | 0.00 | 0.15 | 0.15 | 87 | 1013.9 |
| 20260507054551 | 19 | 18 | 0.0 | 3.2 | 0.00 | 0.15 | 0.15 | 86 | 1014.0 |
| 20260507054050 | 19 | 346 | 0.0 | 3.2 | 0.00 | 0.15 | 0.15 | 85 | 1014.0 |
| 20260507053550 | 20 | 346 | 0.0 | 3.2 | 0.00 | 0.15 | 0.15 | 85 | 1014.1 |
| 20260507053055 | 20 | 16 | 0.0 | 6.4 | 0.00 | 0.15 | 0.15 | 84 | 1014.0 |
| 20260507052550 | 20 | 67 | 0.0 | 12.9 | 0.00 | 0.15 | 0.15 | 84 | 1014.1 |
| 20260507052050 | 19 | 91 | 3.2 | 12.9 | 0.00 | 0.15 | 0.15 | 86 | 1014.1 |
| 20260507051549 | 19 | 98 | 3.2 | 9.7 | 0.00 | 0.15 | 0.15 | 88 | 1014.0 |
| 20260507051049 | 18 | 69 | 1.6 | 4.8 | 0.00 | 0.15 | 0.15 | 90 | 1014.2 |
| 20260507050547 | 18 | 58 | 0.0 | 3.2 | 0.00 | 0.15 | 0.15 | 91 | 1014.3 |
| 20260507050049 | 19 | 31 | 0.0 | 6.4 | 0.00 | 0.15 | 0.15 | 91 | 1014.3 |
| 20260507045549 | 19 | 21 | 0.0 | 6.4 | 0.00 | 0.15 | 0.15 | 91 | 1014.4 |
| 20260507045046 | 19 | 58 | 1.6 | 4.8 | 0.00 | 0.15 | 0.15 | 91 | 1014.6 |
| 20260507044556 | 19 | 78 | 0.0 | 6.4 | 0.00 | 0.15 | 0.15 | 91 | 1014.6 |
| 20260507044044 | 19 | 78 | 0.0 | 6.4 | 0.00 | 0.15 | 0.15 | 91 | 1014.6 |
| 20260507043544 | 19 | 68 | 0.0 | 3.2 | 0.00 | 0.15 | 0.15 | 91 | 1014.6 |
| 20260507043044 | 20 | 68 | 0.0 | 0.0 | 0.00 | 0.15 | 0.15 | 90 | 1014.6 |
| 20260507042542 | 20 | 68 | 0.0 | 1.6 | 0.00 | 0.15 | 0.15 | 90 | 1014.7 |
| 20260507042047 | 20 | 68 | 0.0 | 1.6 | 0.00 | 0.15 | 0.15 | 91 | 1014.7 |
| 20260507041542 | 20 | 68 | 0.0 | 3.2 | 0.00 | 0.15 | 0.15 | 91 | 1014.7 |
| 20260507041042 | 20 | 69 | 1.6 | 3.2 | 0.00 | 0.15 | 0.15 | 91 | 1014.7 |
| 20260507040545 | 20 | 322 | 0.0 | 3.2 | 0.00 | 0.15 | 0.15 | 91 | 1014.6 |
| 20260507040042 | 20 | 5 | 0.0 | 3.2 | 0.00 | 0.15 | 0.15 | 91 | 1014.7 |
| 20260507035542 | 20 | 5 | 0.0 | 1.6 | 0.00 | 0.15 | 0.15 | 90 | 1014.7 |
| 20260507035042 | 20 | 5 | 0.0 | 1.6 | 0.00 | 0.15 | 0.15 | 90 | 1014.8 |
| 20260507034543 | 20 | 5 | 0.0 | 1.6 | 0.00 | 0.15 | 0.15 | 91 | 1014.8 |
| 20260507034040 | 20 | 5 | 0.0 | 1.6 | 0.00 | 0.15 | 0.15 | 91 | 1014.7 |
| 20260507033541 | 20 | 5 | 0.0 | 1.6 | 0.00 | 0.15 | 0.15 | 91 | 1014.6 |
| 20260507033043 | 20 | 331 | 0.0 | 1.6 | 0.00 | 0.15 | 0.15 | 90 | 1014.5 |
| 20260507032539 | 20 | 331 | 0.0 | 0.0 | 0.00 | 0.15 | 0.15 | 90 | 1014.4 |
| 20260507032041 | 20 | 331 | 0.0 | 3.2 | 0.00 | 0.15 | 0.15 | 90 | 1014.5 |
| 20260507031539 | 20 | 331 | 0.0 | 6.4 | 0.00 | 0.15 | 0.15 | 90 | 1014.4 |
| 20260507031038 | 21 | 306 | 3.2 | 6.4 | 0.00 | 0.15 | 0.15 | 90 | 1014.3 |
| 20260507030541 | 21 | 257 | 0.0 | 4.8 | 0.00 | 0.15 | 0.15 | 89 | 1014.3 |
| 20260507030039 | 21 | 254 | 1.6 | 4.8 | 0.00 | 0.15 | 0.15 | 89 | 1014.3 |
| 20260507025542 | 21 | 265 | 0.0 | 3.2 | 0.00 | 0.15 | 0.15 | 85 | 1014.3 |
| 20260507025038 | 20 | 132 | 0.0 | 6.4 | 0.00 | 0.15 | 0.15 | 84 | 1014.2 |
| 20260507024541 | 20 | 94 | 3.2 | 12.9 | 0.00 | 0.15 | 0.15 | 84 | 1014.1 |
| 20260507024038 | 20 | 119 | 4.8 | 12.9 | 0.00 | 0.15 | 0.15 | 84 | 1014.2 |
| 20260507023538 | 20 | 130 | 1.6 | 6.4 | 0.00 | 0.15 | 0.15 | 85 | 1014.2 |
| 20260507023037 | 20 | 94 | 0.0 | 6.4 | 0.00 | 0.15 | 0.15 | 87 | 1014.2 |
| 20260507022537 | 21 | 119 | 0.0 | 4.8 | 0.00 | 0.15 | 0.15 | 89 | 1014.2 |
| 20260507022037 | 21 | 289 | 0.0 | 1.6 | 0.00 | 0.15 | 0.15 | 90 | 1014.0 |
| 20260507021537 | 21 | 289 | 0.0 | 1.6 | 0.00 | 0.15 | 0.15 | 90 | 1014.0 |
| 20260507021038 | 21 | 289 | 0.0 | 1.6 | 0.00 | 0.15 | 0.15 | 90 | 1013.9 |
| 20260507020536 | 21 | 286 | 0.0 | 0.0 | 0.00 | 0.15 | 0.15 | 90 | 1013.9 |
| 20260507020045 | 21 | 286 | 0.0 | 0.0 | 0.00 | 0.15 | 0.15 | 90 | 1013.9 |
| 20260507015535 | 21 | 286 | 0.0 | 1.6 | 0.00 | 0.15 | 0.15 | 90 | 1014.0 |
| 20260507015036 | 21 | 265 | 0.0 | 3.2 | 0.00 | 0.15 | 0.15 | 90 | 1013.7 |
| 20260507014536 | 21 | 265 | 0.0 | 1.6 | 0.00 | 0.15 | 0.15 | 90 | 1013.9 |
| 20260507014037 | 21 | 261 | 0.0 | 1.6 | 0.00 | 0.15 | 0.15 | 90 | 1013.9 |
| 20260507013538 | 21 | 250 | 0.0 | 4.8 | 0.00 | 0.15 | 0.15 | 90 | 1013.8 |
| 20260507013034 | 21 | 246 | 1.6 | 4.8 | 0.00 | 0.15 | 0.15 | 90 | 1013.7 |
| 20260507012534 | 21 | 263 | 0.0 | 4.8 | 0.00 | 0.15 | 0.15 | 90 | 1013.6 |
| 20260507012034 | 21 | 313 | 1.6 | 4.8 | 0.00 | 0.15 | 0.15 | 89 | 1013.6 |
| 20260507011534 | 21 | 305 | 1.6 | 4.8 | 0.00 | 0.15 | 0.15 | 89 | 1013.6 |
| 20260507011033 | 21 | 289 | 1.6 | 6.4 | 0.00 | 0.15 | 0.15 | 89 | 1013.5 |
| 20260507010533 | 21 | 290 | 1.6 | 6.4 | 0.00 | 0.15 | 0.15 | 88 | 1013.5 |
| 20260507010037 | 21 | 309 | 0.0 | 6.4 | 0.00 | 0.15 | 0.15 | 88 | 1013.6 |
| 20260507005533 | 21 | 287 | 0.0 | 6.4 | 0.00 | 0.15 | 0.15 | 88 | 1013.5 |
| 20260507005032 | 21 | 300 | 0.0 | 6.4 | 0.00 | 0.15 | 0.15 | 89 | 1013.4 |
| 20260507004534 | 21 | 280 | 3.2 | 8.0 | 0.00 | 0.15 | 0.15 | 89 | 1013.5 |
| 20260507004031 | 21 | 293 | 4.8 | 8.0 | 0.00 | 0.15 | 0.15 | 88 | 1013.4 |
| 20260507003532 | 21 | 296 | 1.6 | 6.4 | 0.00 | 0.15 | 0.15 | 88 | 1013.3 |
| 20260507003032 | 21 | 321 | 1.6 | 4.8 | 0.00 | 0.15 | 0.15 | 87 | 1013.2 |
| 20260507002531 | 21 | 304 | 1.6 | 8.0 | 0.00 | 0.15 | 0.15 | 87 | 1013.1 |
| 20260507002031 | 21 | 290 | 0.0 | 8.0 | 0.00 | 0.15 | 0.15 | 86 | 1013.1 |
| 20260507001538 | 21 | 254 | 1.6 | 4.8 | 0.00 | 0.15 | 0.15 | 87 | 1012.9 |
| 20260507001031 | 21 | 273 | 0.0 | 4.8 | 0.00 | 0.15 | 0.15 | 86 | 1012.8 |
| 20260507000531 | 21 | 259 | 0.0 | 4.8 | 0.00 | 0.15 | 0.15 | 86 | 1012.7 |
| 20260507000033 | 22 | 285 | 0.0 | 3.2 | 0.00 | 0.15 | 0.15 | 85 | 1012.6 |
| 20260506235531 | 22 | 289 | 0.0 | 4.8 | 0.00 | 0.15 | 0.15 | 85 | 1012.6 |
| 20260506235029 | 22 | 324 | 0.0 | 4.8 | 0.00 | 0.15 | 0.15 | 84 | 1012.6 |
| 20260506234530 | 22 | 321 | 0.0 | 8.0 | 0.00 | 0.15 | 0.15 | 84 | 1012.5 |
| 20260506234029 | 22 | 329 | 4.8 | 9.7 | 0.00 | 0.15 | 0.15 | 82 | 1012.5 |
| 20260506233529 | 22 | 59 | 3.2 | 14.5 | 0.00 | 0.15 | 0.15 | 77 | 1012.4 |
| 20260506233029 | 23 | 108 | 9.7 | 14.5 | 0.00 | 0.15 | 0.15 | 75 | 1012.3 |
| 20260506232528 | 23 | 102 | 3.2 | 11.3 | 0.00 | 0.15 | 0.15 | 75 | 1012.3 |
| 20260506232028 | 23 | 184 | 1.6 | 6.4 | 0.00 | 0.15 | 0.15 | 75 | 1012.2 |
| 20260506231529 | 23 | 134 | 1.6 | 11.3 | 0.00 | 0.15 | 0.15 | 75 | 1012.1 |
| 20260506231030 | 23 | 115 | 6.4 | 11.3 | 0.00 | 0.15 | 0.15 | 75 | 1012.1 |
| 20260506230527 | 23 | 113 | 6.4 | 14.5 | 0.00 | 0.15 | 0.15 | 75 | 1012.1 |
| 20260506230030 | 23 | 105 | 4.8 | 14.5 | 0.00 | 0.30 | 0.15 | 75 | 1012.1 |
| 20260506225529 | 23 | 115 | 3.2 | 12.9 | 0.00 | 0.30 | 0.15 | 76 | 1012.1 |
| 20260506225027 | 23 | 188 | 1.6 | 6.4 | 0.00 | 0.30 | 0.15 | 78 | 1012.2 |
| 20260506224527 | 22 | 148 | 1.6 | 4.8 | 0.00 | 0.30 | 0.15 | 80 | 1012.1 |
| 20260506224026 | 22 | 188 | 0.0 | 3.2 | 0.00 | 0.30 | 0.15 | 82 | 1012.1 |
| 20260506223526 | 22 | 221 | 0.0 | 4.8 | 0.00 | 0.30 | 0.15 | 83 | 1012.0 |
| 20260506223026 | 22 | 228 | 1.6 | 4.8 | 0.00 | 0.30 | 0.15 | 83 | 1011.8 |
| 20260506222528 | 22 | 129 | 0.0 | 3.2 | 0.00 | 0.30 | 0.15 | 84 | 1011.8 |
| 20260506222027 | 22 | 72 | 0.0 | 3.2 | 0.00 | 0.30 | 0.15 | 84 | 1011.8 |
| 20260506221526 | 22 | 324 | 0.0 | 3.2 | 0.00 | 0.30 | 0.15 | 85 | 1011.8 |
| 20260506221027 | 22 | 336 | 0.0 | 3.2 | 0.00 | 0.30 | 0.15 | 86 | 1011.8 |
| 20260506220626 | 22 | 54 | 0.0 | 3.2 | 0.00 | 0.30 | 0.15 | 86 | 1011.7 |
| 20260506220026 | 21 | 61 | 0.0 | 4.8 | 0.00 | 0.30 | 0.15 | 86 | 1011.8 |
| 20260506215526 | 21 | 301 | 0.0 | 6.4 | 0.00 | 0.30 | 0.15 | 86 | 1011.9 |
| 20260506215024 | 21 | 290 | 1.6 | 4.8 | 0.00 | 0.30 | 0.15 | 85 | 1011.9 |
| 20260506214524 | 21 | 309 | 1.6 | 11.3 | 0.00 | 0.30 | 0.15 | 85 | 1011.8 |
| 20260506214024 | 22 | 298 | 4.8 | 11.3 | 0.00 | 0.30 | 0.15 | 85 | 1011.9 |
| 20260506213525 | 22 | 302 | 0.0 | 8.0 | 0.00 | 0.30 | 0.15 | 84 | 1011.7 |
| 20260506213024 | 22 | 241 | 1.6 | 11.3 | 0.00 | 0.30 | 0.15 | 84 | 1011.7 |
| 20260506212524 | 22 | 300 | 4.8 | 19.3 | 0.00 | 0.30 | 0.15 | 84 | 1011.6 |
| 20260506212024 | 22 | 311 | 8.0 | 19.3 | 0.00 | 0.30 | 0.15 | 83 | 1011.7 |
| 20260506211523 | 23 | 251 | 4.8 | 19.3 | 0.03 | 0.30 | 0.15 | 84 | 1011.5 |
| 20260506211024 | 23 | 266 | 6.4 | 12.9 | 0.10 | 0.30 | 0.15 | 78 | 1011.5 |
| 20260506210524 | 22 | 229 | 4.8 | 8.0 | 0.15 | 0.30 | 0.15 | 79 | 1011.4 |
| 20260506210024 | 22 | 277 | 0.0 | 9.7 | 0.15 | 0.30 | 0.15 | 79 | 1011.1 |
| 20260506205523 | 22 | 49 | 0.0 | 9.7 | 0.15 | 0.30 | 0.15 | 80 | 1011.0 |
| 20260506205023 | 22 | 360 | 3.2 | 9.7 | 0.15 | 0.30 | 0.15 | 80 | 1011.1 |
| 20260506204522 | 22 | 51 | 3.2 | 8.0 | 0.15 | 0.30 | 0.15 | 81 | 1011.1 |
| 20260506204021 | 22 | 348 | 1.6 | 12.9 | 0.15 | 0.30 | 0.15 | 81 | 1011.3 |
| 20260506203521 | 22 | 88 | 3.2 | 17.7 | 0.15 | 0.30 | 0.15 | 80 | 1011.4 |
| 20260506203027 | 22 | 31 | 8.0 | 17.7 | 0.15 | 0.30 | 0.15 | 79 | 1011.4 |
| 20260506202521 | 22 | 91 | 4.8 | 9.7 | 0.15 | 0.30 | 0.15 | 79 | 1011.6 |
| 20260506202021 | 23 | 355 | 4.8 | 9.7 | 0.15 | 0.30 | 0.15 | 78 | 1011.4 |
| 20260506201521 | 24 | 76 | 3.2 | 24.1 | 0.13 | 0.28 | 0.13 | 75 | 1011.6 |
| 20260506201020 | 25 | 98 | 14.5 | 24.1 | 0.00 | 0.15 | 0.00 | 68 | 1011.6 |
| 20260506200522 | 27 | 63 | 8.0 | 22.5 | 0.00 | 0.15 | 0.00 | 62 | 1011.5 |
| 20260506200019 | 27 | 322 | 8.0 | 22.5 | 0.00 | 0.15 | 0.00 | 61 | 1011.2 |
| 20260506195519 | 28 | 174 | 8.0 | 16.1 | 0.00 | 0.15 | 0.00 | 54 | 1011.6 |
| 20260506195022 | 29 | 78 | 3.2 | 12.9 | 0.00 | 0.15 | 0.00 | 51 | 1011.5 |
| 20260506194518 | 29 | 194 | 3.2 | 12.9 | 0.00 | 0.15 | 0.00 | 50 | 1011.5 |
| 20260506194019 | 29 | 119 | 1.6 | 9.7 | 0.00 | 0.15 | 0.00 | 50 | 1011.5 |
| 20260506193516 | 28 | 136 | 1.6 | 17.7 | 0.00 | 0.15 | 0.00 | 51 | 1011.4 |
| 20260506193016 | 28 | 51 | 6.4 | 17.7 | 0.00 | 0.15 | 0.00 | 51 | 1011.5 |
| 20260506192514 | 29 | 81 | 4.8 | 17.7 | 0.00 | 0.15 | 0.00 | 50 | 1011.7 |
| 20260506192013 | 28 | 49 | 4.8 | 9.7 | 0.00 | 0.15 | 0.00 | 51 | 1011.9 |
| 20260506191512 | 28 | 46 | 1.6 | 19.3 | 0.00 | 0.15 | 0.00 | 52 | 1012.1 |
| 20260506191011 | 28 | 109 | 9.7 | 19.3 | 0.00 | 0.15 | 0.00 | 52 | 1012.3 |
| 20260506190511 | 28 | 98 | 6.4 | 19.3 | 0.00 | 0.15 | 0.00 | 53 | 1012.3 |
| 20260506190010 | 28 | 107 | 8.0 | 17.7 | 0.00 | 0.15 | 0.00 | 53 | 1012.5 |
| 20260506185508 | 28 | 150 | 3.2 | 19.3 | 0.00 | 0.15 | 0.00 | 54 | 1012.5 |
| 20260506185007 | 28 | 67 | 9.7 | 20.9 | 0.00 | 0.15 | 0.00 | 55 | 1012.6 |
| 20260506184508 | 27 | 325 | 11.3 | 20.9 | 0.00 | 0.15 | 0.00 | 56 | 1012.7 |
| 20260506184006 | 27 | 83 | 12.9 | 20.9 | 0.00 | 0.15 | 0.00 | 56 | 1012.7 |
| 20260506183506 | 27 | 82 | 11.3 | 20.9 | 0.00 | 0.15 | 0.00 | 56 | 1012.7 |
| 20260506183007 | 27 | 131 | 11.3 | 20.9 | 0.00 | 0.15 | 0.00 | 57 | 1012.8 |